Retour au catalogue

STARLINK-5086

ActifCommunicationsVLEO
NORAD 54856·PAYLOAD·🇺🇸 United States

Lancé Dec 28, 2022 depuis Cape Canaveral Space Force Station

Loading…

Prochains Passages (prochaines 24 heures)

TLE

FraisSource: CelesTrak SupGP

Époque: Sep 15, 2026, 01:23 UTC

1 54856C 22177AN  26258.05812500  .00048176  00000+0  17456-2 0  2589
2 54856  43.0003 132.2831 0001336 274.1857 322.6670 15.27542325    10

Suivez STARLINK-5086 en temps réel avec AllMySat

Download on the App Store